Weather History for KCDR - October, 2012

Change the Weather History Date:

Tuesday, October 9, 2012

  Actual Average Record
Temperature  
Mean Temperature 38 °F 50 °F  
Max Temperature 51 °F 67 °F 88 °F (2003)
Min Temperature 25 °F 34 °F 20 °F (2009)
Degree Days  
Heating Degree Days 27 15  
Month to date heating degree days 176 119  
Since 1 July heating degree days 293 330  
Cooling Degree Days 0 0  
Month to date cooling degree days 0 0  
Year to date cooling degree days 1167 710  
Moisture  
Dew Point 32 °F    
Average Humidity 71    
Maximum Humidity 100    
Minimum Humidity 42    
Precipitation  
Precipitation 0.05 in 0.04 in 1.25 in (1982)
Month to date precipitation 0.24 0.45  
Year to date precipitation 6.72 16.05  
Sea Level Pressure  
Sea Level Pressure 30.11 in    
Wind  
Wind Speed 8 mph (NNE)    
Max Wind Speed 23 mph    
Max Gust Speed 30 mph    
Visibility 7 miles    
Events Rain , Snow    
T = Trace of Precipitation, MM = Missing Value Source: NWS Daily Summary

Daily Weather History Graph

Daily Weather History Graph

Search for Another Location

Airport or City:

Trip Planner

Search our weather history database for the weather conditions in past years. The results will help you decide how hot, cold, wet, or windy it might be!

Date:

Astronomy

Oct. 09, 2012 Rise Set
Actual Time 6:59 AM MDT 6:18 PM MDT
Civil Twilight 6:30 AM MDT 6:47 PM MDT
Nautical Twilight 5:58 AM MDT 7:19 PM MDT
Astronomical Twilight 5:25 AM MDT 7:52 PM MDT
Moon 12:29 AM MDT (10/9) 2:55 PM MDT (10/9)
Length of Visible Light 12h 16m
Length of Day
11h 19m
Last Quarter, 36% of the Moon is Illuminated
Oct 9
Last Quarter
Oct 15
New
Oct 21
First Quarter
Oct 29
Full
Nov 6
Last Quarter

Hourly Weather History & Observations

Time (MDT) Temp. Windchill Dew Point Humidity Pressure Visibility Wind Dir Wind Speed Gust Speed Precip Events Conditions
12:53 AM 46.0 °F 41.0 °F 39.0 °F 76% 29.93 in 10.0 mi NE 10.4 mph - N/A   Overcast
2:50 AM 42.8 °F 39.3 °F 37.4 °F 81% 29.95 in 10.0 mi ENE 5.8 mph - N/A   Overcast
2:53 AM 43.0 °F 38.8 °F 37.0 °F 80% 29.96 in 10.0 mi NE 6.9 mph - N/A   Overcast
3:18 AM 42.8 °F 36.6 °F 37.4 °F 81% 29.96 in 10.0 mi NE 11.5 mph - N/A   Overcast
3:53 AM 43.0 °F 37.2 °F 37.9 °F 82% 29.97 in 10.0 mi NE 10.4 mph - N/A   Overcast
4:43 AM 41.0 °F 33.1 °F 35.6 °F 81% 30.01 in 10.0 mi NE 15.0 mph - N/A   Overcast
4:53 AM 41.0 °F 33.5 °F 35.1 °F 79% 30.03 in 10.0 mi NE 13.8 mph 20.7 mph N/A   Overcast
5:53 AM 36.0 °F 27.5 °F 33.1 °F 89% 30.07 in 3.0 mi NE 12.7 mph - 0.00 in Rain Light Rain
6:22 AM 35.6 °F 28.0 °F 33.8 °F 93% 30.06 in 5.0 mi ENE 10.4 mph - N/A Snow Light Snow
6:48 AM 33.8 °F 28.6 °F 33.8 °F 100% 30.07 in 2.5 mi ENE 5.8 mph - 0.01 in Snow Light Snow
6:53 AM 34.0 °F 29.8 °F 33.1 °F 96% 30.12 in 2.5 mi ENE 4.6 mph - 0.01 in Snow Light Snow
7:05 AM 33.8 °F 30.8 °F 33.8 °F 100% 30.08 in 1.5 mi East 3.5 mph - 0.01 in Snow Light Snow
7:22 AM 33.8 °F 30.8 °F 33.8 °F 100% 30.08 in 0.8 mi ESE 3.5 mph - 0.02 in Snow Light Snow
7:34 AM 33.8 °F 30.8 °F 32.0 °F 93% 30.08 in 0.8 mi SE 3.5 mph - 0.03 in Snow Light Snow
7:41 AM 33.8 °F - 32.0 °F 93% 30.08 in 0.8 mi Calm Calm - 0.03 in Snow Light Snow
7:53 AM 33.1 °F 30.0 °F 33.1 °F 100% 30.14 in 0.8 mi South 3.5 mph - 0.03 in Snow Light Snow
8:01 AM 33.8 °F - 32.0 °F 93% 30.09 in 0.8 mi Calm Calm - 0.01 in Snow Light Snow
8:12 AM 33.8 °F 30.8 °F 32.0 °F 93% 30.09 in 1.2 mi SW 3.5 mph - 0.01 in Snow Light Snow
8:28 AM 33.8 °F 29.6 °F 32.0 °F 93% 30.09 in 2.0 mi WSW 4.6 mph - 0.01 in Snow Light Snow
8:37 AM 33.8 °F 28.6 °F 33.8 °F 100% 30.10 in 5.0 mi WSW 5.8 mph - 0.01 in   Overcast
8:53 AM 34.0 °F 28.8 °F 33.1 °F 96% 30.16 in 10.0 mi WSW 5.8 mph - 0.01 in   Overcast
9:53 AM 36.0 °F 32.1 °F 34.0 °F 93% 30.17 in 10.0 mi SSW 4.6 mph - N/A   Overcast
10:10 AM 37.4 °F 33.8 °F 33.8 °F 87% 30.13 in 10.0 mi SSW 4.6 mph - N/A   Overcast
10:30 AM 37.4 °F 32.1 °F 33.8 °F 87% 30.12 in 10.0 mi SSW 6.9 mph - N/A   Overcast
10:53 AM 39.0 °F 33.4 °F 36.0 °F 89% 30.18 in 10.0 mi SW 8.1 mph - N/A   Overcast
11:53 AM 43.0 °F 36.0 °F 34.0 °F 71% 30.17 in 10.0 mi West 13.8 mph - N/A   Overcast
12:53 PM 44.1 °F 35.7 °F 30.9 °F 60% 30.16 in 10.0 mi WNW 20.7 mph 26.5 mph N/A   Overcast
1:53 PM 48.9 °F - 30.0 °F 48% 30.14 in 10.0 mi WNW 18.4 mph 26.5 mph N/A   Overcast
2:53 PM 48.0 °F - 28.9 °F 48% 30.15 in 10.0 mi WNW 17.3 mph 28.8 mph N/A   Overcast
3:53 PM 50.0 °F - 28.0 °F 43% 30.14 in 10.0 mi NW 17.3 mph 24.2 mph N/A   Mostly Cloudy
4:53 PM 48.0 °F - 30.9 °F 52% 30.15 in 10.0 mi NNE 13.8 mph - N/A   Mostly Cloudy
5:53 PM 46.0 °F 42.5 °F 30.0 °F 54% 30.18 in 10.0 mi NNE 6.9 mph - N/A   Clear
6:53 PM 37.9 °F - 28.9 °F 70% 30.22 in 10.0 mi Calm Calm - N/A   Clear
7:53 PM 34.0 °F - 28.0 °F 79% 30.25 in 10.0 mi Calm Calm - N/A   Clear
8:53 PM 30.0 °F 26.5 °F 26.1 °F 85% 30.26 in 10.0 mi SW 3.5 mph - N/A   Clear
9:53 PM 30.0 °F - 26.1 °F 85% 30.27 in 10.0 mi Calm Calm - N/A   Clear
10:53 PM 27.0 °F - 24.1 °F 89% 30.27 in 9.0 mi Calm Calm - N/A   Clear
11:53 PM 25.0 °F 17.1 °F 23.0 °F 92% 30.26 in 9.0 mi WSW 6.9 mph - N/A   Clear